Skip Page Navigation
NASA JPL Caltech
NASA Logo - Jet Propulsion Laboratory + View the NASA Portal
+ Center for Near-Earth Object Studies
JPL Home Earth Solar System Stars & Galaxies Technology
JPL Solar System Dynamics
BODIES ORBITS EPHEMERIDES TOOLS PHYSICAL DATA DISCOVERY FAQ SITE MAP
IMPORTANT: The SSD Announcement email list is now available. Major changes are coming in the near future, including possible hostname and/or URL changes. To be notified of such changes, subscribe to this email list.

Please visit this page for more details.


JPL Small-Body Database Browser
Search: [ help ]  
35190 (1994 AW)
Classification: Main-belt Asteroid          SPK-ID: 2035190
Ephemeris | Orbit Diagram | Orbital Elements | Mission Design | Physical Parameters | Discovery Circumstances ]

[ show orbit diagram ]
Orbital Elements at Epoch 2458600.5 (2019-Apr-27.0) TDB
Reference: JPL 26 (heliocentric ecliptic J2000)
 Element Value Uncertainty (1-sigma)   Units 
e .1377792863333226 3.4115e-08  
a 2.608503893764142 9.4293e-09 au
q 2.249106088883626 8.8983e-08 au
i 1.258824064316639 4.0265e-06 deg
node 170.0149794795555 0.00017243 deg
peri 244.6200830282823 0.00017303 deg
M 47.17576132390967 1.5046e-05 deg
tp 2458398.848211762237
(2018-Oct-07.34821176)
6.3904e-05 TDB
period 1538.812341938873
4.21
8.3438e-06
2.284e-08
d
yr
n .2339466549549552 1.2685e-09 deg/d
Q 2.967901698644659 1.0728e-08 au
  Orbit Determination Parameters
   # obs. used (total)      1769  
   data-arc span      9195 days (25.17 yr)  
   first obs. used      1994-01-04  
   last obs. used      2019-03-09  
   planetary ephem.      DE431  
   SB-pert. ephem.      SB431-N16  
   condition code      0  
   norm. resid. RMS      .51321  
   source      ORB  
   producer      Otto Matic  
   solution date      2019-Jul-13 01:45:53  

Additional Information
 Earth MOID = 1.26046 au 
 Jupiter MOID = 2.36633 au 
 T_jup = 3.397 
[ show covariance matrix ]

Ephemeris | Orbit Diagram | Orbital Elements | Mission Design | Physical Parameters | Discovery Circumstances ]

Physical Parameter Table
Parameter Symbol Value Units Sigma Reference Notes
absolute magnitude H 14.2   n/a MPO337548  

35190 (1994 AW)          Discovered 1994-Jan-04 by Kobayashi, T. at Oizumi
Reference: 20020227/Numbers.arcLast Updated: 2004-04-19
Ephemeris | Orbit Diagram | Orbital Elements | Mission Design | Physical Parameters | Discovery Circumstances ]
ABOUT SSD CREDITS/AWARDS PRIVACY/COPYRIGHT GLOSSARY LINKS
FirstGov
(server date/time)  
NASA Home Page
Site Manager:   Ryan S. Park
Webmaster  Alan B. Chamberlin